Time,TemperatureF,DewpointF,PressureIn,WindDirection,WindDirectionDegrees,WindSpeedMPH,WindSpeedGustMPH,Humidity,HourlyPrecipIn,Conditions,Clouds,dailyrainin,SoftwareType,DateUTC
2013-03-27 00:03:00,28.8,17.0,30.26,NE,45,0.8,2.0,61,0.00,,,0.00,WUHU21623XXSP,2013-03-27 05:03:00,
2013-03-27 00:08:00,28.8,17.4,30.26,West,270,0.0,0.9,62,0.00,,,0.00,WUHU21623XXSP,2013-03-27 05:08:00,
2013-03-27 00:13:00,28.6,17.2,30.26,WSW,256,1.1,1.8,62,0.00,,,0.00,WUHU21623XXSP,2013-03-27 05:13:00,
2013-03-27 00:18:00,28.6,17.2,30.26,North,0,1.0,2.2,62,0.00,,,0.00,WUHU21623XXSP,2013-03-27 05:18:00,
2013-03-27 00:23:00,28.6,17.2,30.26,WSW,244,1.8,2.5,62,0.00,,,0.00,WUHU21623XXSP,2013-03-27 05:23:00,
2013-03-27 00:28:00,28.6,17.6,30.26,West,270,2.9,3.6,63,0.00,,,0.00,WUHU21623XXSP,2013-03-27 05:28:00,
2013-03-27 00:33:00,28.6,17.6,30.26,West,264,2.0,3.6,63,0.00,,,0.00,WUHU21623XXSP,2013-03-27 05:33:00,
2013-03-27 00:38:00,28.8,17.7,30.27,North,0,0.9,3.8,63,0.00,,,0.00,WUHU21623XXSP,2013-03-27 05:38:00,
2013-03-27 00:43:00,28.9,17.9,30.27,NNW,332,1.2,3.8,63,0.00,,,0.00,WUHU21623XXSP,2013-03-27 05:43:00,
2013-03-27 00:48:00,29.1,18.1,30.27,West,270,2.2,2.5,63,0.00,,,0.00,WUHU21623XXSP,2013-03-27 05:48:00,
2013-03-27 00:53:00,29.1,18.1,30.27,West,262,1.6,2.9,63,0.00,,,0.00,WUHU21623XXSP,2013-03-27 05:53:00,
2013-03-27 00:58:00,29.1,18.1,30.26,NW,315,1.8,2.9,63,0.00,,,0.00,WUHU21623XXSP,2013-03-27 05:58:00,
2013-03-27 01:03:00,29.1,18.4,30.27,North,2,1.4,2.2,64,0.00,,,0.00,WUHU21623XXSP,2013-03-27 06:03:00,
2013-03-27 01:08:00,29.1,18.4,30.27,NNW,331,1.1,2.0,64,0.00,,,0.00,WUHU21623XXSP,2013-03-27 06:08:00,
2013-03-27 01:13:00,29.1,18.4,30.27,West,270,1.1,1.6,64,0.00,,,0.00,WUHU21623XXSP,2013-03-27 06:13:00,
2013-03-27 01:18:00,29.1,18.4,30.27,WNW,290,1.6,3.1,64,0.00,,,0.00,WUHU21623XXSP,2013-03-27 06:18:00,
2013-03-27 01:23:00,29.1,18.4,30.27,West,270,2.2,3.1,64,0.00,,,0.00,WUHU21623XXSP,2013-03-27 06:23:00,
2013-03-27 01:28:00,29.1,18.4,30.27,WNW,288,2.0,3.1,64,0.00,,,0.00,WUHU21623XXSP,2013-03-27 06:28:00,
2013-03-27 01:33:00,29.1,18.4,30.27,West,279,1.8,3.1,64,0.00,,,0.00,WUHU21623XXSP,2013-03-27 06:33:00,
2013-03-27 01:38:00,29.3,18.6,30.28,North,0,1.3,2.9,64,0.00,,,0.00,WUHU21623XXSP,2013-03-27 06:38:00,
2013-03-27 01:43:00,29.3,18.9,30.28,West,279,1.3,2.9,65,0.00,,,0.00,WUHU21623XXSP,2013-03-27 06:43:00,
2013-03-27 01:48:00,29.3,18.9,30.28,NNW,337,1.1,2.9,65,0.00,,,0.00,WUHU21623XXSP,2013-03-27 06:48:00,
2013-03-27 01:53:00,29.3,18.9,30.28,West,279,0.9,2.5,65,0.00,,,0.00,WUHU21623XXSP,2013-03-27 06:53:00,
2013-03-27 01:58:00,29.3,18.9,30.28,North,0,1.1,2.9,65,0.00,,,0.00,WUHU21623XXSP,2013-03-27 06:58:00,
2013-03-27 02:03:00,29.3,18.9,30.28,North,0,0.0,2.9,65,0.00,,,0.00,WUHU21623XXSP,2013-03-27 07:03:00,
2013-03-27 02:08:00,29.3,18.9,30.28,WSW,247,0.0,2.9,65,0.00,,,0.00,WUHU21623XXSP,2013-03-27 07:08:00,
2013-03-27 02:13:00,29.3,18.9,30.28,West,270,0.0,2.9,65,0.00,,,0.00,WUHU21623XXSP,2013-03-27 07:13:00,
2013-03-27 02:18:00,29.3,18.9,30.28,NW,315,0.9,0.9,65,0.00,,,0.00,WUHU21623XXSP,2013-03-27 07:18:00,
2013-03-27 02:23:00,29.3,18.9,30.28,NW,323,1.5,2.0,65,0.00,,,0.00,WUHU21623XXSP,2013-03-27 07:23:00,
2013-03-27 02:28:00,29.3,18.9,30.28,NNE,30,1.0,2.2,65,0.00,,,0.00,WUHU21623XXSP,2013-03-27 07:28:00,
2013-03-27 02:33:00,29.3,18.9,30.29,NNW,337,0.9,2.2,65,0.00,,,0.00,WUHU21623XXSP,2013-03-27 07:33:00,
2013-03-27 02:38:00,29.3,18.9,30.28,WNW,292,0.0,0.9,65,0.00,,,0.00,WUHU21623XXSP,2013-03-27 07:38:00,
2013-03-27 02:43:00,29.3,18.9,30.28,WNW,292,0.0,0.0,65,0.00,,,0.00,WUHU21623XXSP,2013-03-27 07:43:00,
2013-03-27 02:48:00,29.3,18.9,30.29,WNW,292,0.0,0.0,65,0.00,,,0.00,WUHU21623XXSP,2013-03-27 07:48:00,
2013-03-27 02:53:00,29.3,18.9,30.29,WNW,292,0.0,0.0,65,0.00,,,0.00,WUHU21623XXSP,2013-03-27 07:53:00,
2013-03-27 02:58:00,29.3,18.9,30.28,NNW,341,0.9,1.3,65,0.00,,,0.00,WUHU21623XXSP,2013-03-27 07:58:00,
2013-03-27 03:03:00,29.3,18.9,30.29,NNW,337,0.7,1.3,65,0.00,,,0.00,WUHU21623XXSP,2013-03-27 08:03:00,
2013-03-27 03:08:00,29.3,18.9,30.28,West,270,1.9,2.9,65,0.00,,,0.00,WUHU21623XXSP,2013-03-27 08:08:00,
2013-03-27 03:13:00,29.3,18.9,30.29,NNE,22,0.7,2.9,65,0.00,,,0.00,WUHU21623XXSP,2013-03-27 08:13:00,
2013-03-27 03:18:00,29.3,19.3,30.28,NE,45,0.0,0.7,66,0.00,,,0.00,WUHU21623XXSP,2013-03-27 08:18:00,
2013-03-27 03:23:00,29.1,19.1,30.29,ESE,112,0.0,0.7,66,0.00,,,0.00,WUHU21623XXSP,2013-03-27 08:23:00,
2013-03-27 03:28:00,29.1,19.1,30.29,SSW,202,2.9,2.9,66,0.00,,,0.00,WUHU21623XXSP,2013-03-27 08:28:00,
2013-03-27 03:33:00,28.9,19.0,30.28,SW,225,0.0,2.9,66,0.00,,,0.00,WUHU21623XXSP,2013-03-27 08:33:00,
2013-03-27 03:38:00,28.9,19.0,30.28,WNW,292,1.1,1.1,66,0.00,,,0.00,WUHU21623XXSP,2013-03-27 08:38:00,
2013-03-27 03:43:00,28.9,19.0,30.28,WNW,292,0.0,1.1,66,0.00,,,0.00,WUHU21623XXSP,2013-03-27 08:43:00,
2013-03-27 03:48:00,28.9,19.0,30.28,West,270,0.0,0.0,66,0.00,,,0.00,WUHU21623XXSP,2013-03-27 08:48:00,
2013-03-27 03:54:00,28.8,18.8,30.28,SSE,157,0.0,1.3,66,0.00,,,0.00,WUHU21623XXSP,2013-03-27 08:54:00,
2013-03-27 03:59:00,28.8,18.8,30.28,SSW,202,0.0,1.3,66,0.00,,,0.00,WUHU21623XXSP,2013-03-27 08:59:00,
2013-03-27 04:04:00,28.6,18.7,30.28,WSW,247,0.0,0.0,66,0.00,,,0.00,WUHU21623XXSP,2013-03-27 09:04:00,
2013-03-27 04:09:00,28.2,18.3,30.28,West,270,0.0,2.2,66,0.00,,,0.00,WUHU21623XXSP,2013-03-27 09:09:00,
2013-03-27 04:14:00,28.2,18.3,30.28,West,270,0.0,2.2,66,0.00,,,0.00,WUHU21623XXSP,2013-03-27 09:14:00,
2013-03-27 04:19:00,28.2,18.3,30.28,West,270,0.7,1.3,66,0.00,,,0.00,WUHU21623XXSP,2013-03-27 09:19:00,
2013-03-27 04:24:00,28.2,18.3,30.28,West,262,0.9,2.7,66,0.00,,,0.00,WUHU21623XXSP,2013-03-27 09:24:00,
2013-03-27 04:29:00,28.2,18.3,30.28,WNW,282,1.5,2.7,66,0.00,,,0.00,WUHU21623XXSP,2013-03-27 09:29:00,
2013-03-27 04:34:00,28.0,18.1,30.28,West,268,1.2,2.5,66,0.00,,,0.00,WUHU21623XXSP,2013-03-27 09:34:00,
2013-03-27 04:39:00,28.0,18.1,30.28,NW,315,0.0,2.5,66,0.00,,,0.00,WUHU21623XXSP,2013-03-27 09:39:00,
2013-03-27 04:44:00,28.0,18.1,30.28,West,270,0.0,2.0,66,0.00,,,0.00,WUHU21623XXSP,2013-03-27 09:44:00,
2013-03-27 04:49:00,28.0,18.1,30.28,West,270,0.0,2.0,66,0.00,,,0.00,WUHU21623XXSP,2013-03-27 09:49:00,
2013-03-27 04:54:00,27.7,17.8,30.28,West,270,0.0,0.0,66,0.00,,,0.00,WUHU21623XXSP,2013-03-27 09:54:00,
2013-03-27 04:59:00,27.7,17.8,30.28,West,270,0.0,0.0,66,0.00,,,0.00,WUHU21623XXSP,2013-03-27 09:59:00,
2013-03-27 05:04:00,27.3,17.4,30.28,SW,225,0.0,0.7,66,0.00,,,0.00,WUHU21623XXSP,2013-03-27 10:04:00,
2013-03-27 05:09:00,27.1,17.2,30.28,WSW,247,0.0,0.7,66,0.00,,,0.00,WUHU21623XXSP,2013-03-27 10:09:00,
2013-03-27 05:14:00,27.0,17.1,30.28,WNW,292,0.9,0.9,66,0.00,,,0.00,WUHU21623XXSP,2013-03-27 10:14:00,
2013-03-27 05:19:00,26.8,17.2,30.28,WNW,292,0.0,0.9,67,0.00,,,0.00,WUHU21623XXSP,2013-03-27 10:19:00,
2013-03-27 05:24:00,26.6,16.7,30.27,West,270,0.8,2.2,66,0.00,,,0.00,WUHU21623XXSP,2013-03-27 10:24:00,
2013-03-27 05:29:00,26.6,16.7,30.27,West,270,0.8,2.2,66,0.00,,,0.00,WUHU21623XXSP,2013-03-27 10:29:00,
2013-03-27 05:34:00,26.4,16.5,30.27,West,270,0.0,1.8,66,0.00,,,0.00,WUHU21623XXSP,2013-03-27 10:34:00,
2013-03-27 05:39:00,26.4,16.5,30.27,West,270,0.0,1.8,66,0.00,,,0.00,WUHU21623XXSP,2013-03-27 10:39:00,
2013-03-27 05:44:00,26.2,16.3,30.27,West,270,2.2,2.2,66,0.00,,,0.00,WUHU21623XXSP,2013-03-27 10:44:00,
2013-03-27 05:49:00,26.1,16.2,30.27,West,270,1.1,2.2,66,0.00,,,0.00,WUHU21623XXSP,2013-03-27 10:49:00,
2013-03-27 05:54:00,25.9,16.0,30.26,West,270,0.9,1.1,66,0.00,,,0.00,WUHU21623XXSP,2013-03-27 10:54:00,
2013-03-27 05:59:00,25.7,16.2,30.27,West,270,1.6,3.4,67,0.00,,,0.00,WUHU21623XXSP,2013-03-27 10:59:00,
2013-03-27 06:04:00,25.5,15.7,30.27,West,270,0.0,3.4,66,0.00,,,0.00,WUHU21623XXSP,2013-03-27 11:04:00,
2013-03-27 06:09:00,25.5,16.0,30.26,West,270,0.0,0.0,67,0.00,,,0.00,WUHU21623XXSP,2013-03-27 11:09:00,
2013-03-27 06:14:00,25.2,15.7,30.26,West,270,0.0,0.0,67,0.00,,,0.00,WUHU21623XXSP,2013-03-27 11:14:00,
2013-03-27 06:19:00,25.2,15.7,30.26,West,270,0.0,0.0,67,0.00,,,0.00,WUHU21623XXSP,2013-03-27 11:19:00,
2013-03-27 06:24:00,25.0,15.5,30.26,West,270,0.0,0.0,67,0.00,,,0.00,WUHU21623XXSP,2013-03-27 11:24:00,
2013-03-27 06:29:00,24.6,15.1,30.26,West,270,0.0,0.0,67,0.00,,,0.00,WUHU21623XXSP,2013-03-27 11:29:00,
2013-03-27 06:34:00,24.4,15.0,30.27,West,270,0.0,0.0,67,0.00,,,0.00,WUHU21623XXSP,2013-03-27 11:34:00,
2013-03-27 06:39:00,24.1,14.6,30.26,West,270,0.0,0.0,67,0.00,,,0.00,WUHU21623XXSP,2013-03-27 11:39:00,
2013-03-27 06:44:00,23.7,14.3,30.26,West,270,0.0,0.0,67,0.00,,,0.00,WUHU21623XXSP,2013-03-27 11:44:00,
2013-03-27 06:49:00,23.5,14.1,30.26,West,270,0.0,0.0,67,0.00,,,0.00,WUHU21623XXSP,2013-03-27 11:49:00,
2013-03-27 06:54:00,23.5,14.1,30.26,West,270,0.0,0.0,67,0.00,,,0.00,WUHU21623XXSP,2013-03-27 11:54:00,
2013-03-27 06:59:00,23.5,14.1,30.26,West,270,0.0,0.0,67,0.00,,,0.00,WUHU21623XXSP,2013-03-27 11:59:00,
2013-03-27 07:04:00,23.2,13.8,30.26,West,270,0.0,0.0,67,0.00,,,0.00,WUHU21623XXSP,2013-03-27 12:04:00,
2013-03-27 07:09:00,23.2,13.8,30.26,West,270,0.0,0.0,67,0.00,,,0.00,WUHU21623XXSP,2013-03-27 12:09:00,
2013-03-27 07:14:00,23.0,14.0,30.26,West,270,0.0,0.0,68,0.00,,,0.00,WUHU21623XXSP,2013-03-27 12:14:00,
2013-03-27 07:19:00,23.0,14.0,30.26,West,270,0.0,0.0,68,0.00,,,0.00,WUHU21623XXSP,2013-03-27 12:19:00,
2013-03-27 07:24:00,22.8,13.8,30.26,West,270,0.0,0.0,68,0.00,,,0.00,WUHU21623XXSP,2013-03-27 12:24:00,
2013-03-27 07:29:00,22.8,13.8,30.27,West,270,0.0,0.0,68,0.00,,,0.00,WUHU21623XXSP,2013-03-27 12:29:00,
2013-03-27 07:34:00,22.8,13.8,30.26,West,270,0.0,0.0,68,0.00,,,0.00,WUHU21623XXSP,2013-03-27 12:34:00,
2013-03-27 07:39:00,22.8,13.8,30.26,WNW,292,0.0,0.0,68,0.00,,,0.00,WUHU21623XXSP,2013-03-27 12:39:00,
2013-03-27 07:44:00,22.8,13.8,30.27,WNW,292,0.0,0.0,68,0.00,,,0.00,WUHU21623XXSP,2013-03-27 12:44:00,
2013-03-27 07:49:00,22.8,14.2,30.27,West,270,1.3,1.6,69,0.00,,,0.00,WUHU21623XXSP,2013-03-27 12:49:00,
2013-03-27 07:54:00,22.8,14.2,30.28,West,270,0.7,1.6,69,0.00,,,0.00,WUHU21623XXSP,2013-03-27 12:54:00,
2013-03-27 07:59:00,22.8,14.2,30.28,West,259,1.1,1.1,69,0.00,,,0.00,WUHU21623XXSP,2013-03-27 12:59:00,
2013-03-27 08:04:00,23.0,14.4,30.28,WNW,292,1.1,2.2,69,0.00,,,0.00,WUHU21623XXSP,2013-03-27 13:04:00,
2013-03-27 08:09:00,23.4,14.7,30.28,WNW,292,0.0,2.2,69,0.00,,,0.00,WUHU21623XXSP,2013-03-27 13:09:00,
2013-03-27 08:14:00,23.7,15.0,30.28,WSW,247,0.8,1.3,69,0.00,,,0.00,WUHU21623XXSP,2013-03-27 13:14:00,
2013-03-27 08:20:00,24.1,15.3,30.28,WSW,247,0.0,1.8,69,0.00,,,0.00,WUHU21623XXSP,2013-03-27 13:20:00,
2013-03-27 08:25:00,24.4,16.0,30.28,WNW,292,0.0,2.7,70,0.00,,,0.00,WUHU21623XXSP,2013-03-27 13:25:00,
2013-03-27 08:30:00,24.6,16.2,30.28,WNW,292,0.0,2.7,70,0.00,,,0.00,WUHU21623XXSP,2013-03-27 13:30:00,
2013-03-27 08:35:00,25.0,16.5,30.29,West,270,1.0,2.5,70,0.00,,,0.00,WUHU21623XXSP,2013-03-27 13:35:00,
2013-03-27 08:40:00,25.0,16.5,30.29,West,261,1.0,2.5,70,0.00,,,0.00,WUHU21623XXSP,2013-03-27 13:40:00,
2013-03-27 08:45:00,25.3,16.9,30.29,West,270,0.0,1.6,70,0.00,,,0.00,WUHU21623XXSP,2013-03-27 13:45:00,
2013-03-27 08:50:00,25.7,17.2,30.29,West,270,0.0,1.3,70,0.00,,,0.00,WUHU21623XXSP,2013-03-27 13:50:00,
2013-03-27 08:55:00,25.9,17.4,30.29,WNW,291,1.4,2.0,70,0.00,,,0.00,WUHU21623XXSP,2013-03-27 13:55:00,
2013-03-27 09:00:00,26.2,17.8,30.29,West,270,0.8,2.0,70,0.00,,,0.00,WUHU21623XXSP,2013-03-27 14:00:00,
2013-03-27 09:05:00,26.6,18.1,30.29,WNW,292,0.0,1.8,70,0.00,,,0.00,WUHU21623XXSP,2013-03-27 14:05:00,
2013-03-27 09:10:00,27.1,18.7,30.29,NW,315,0.9,1.8,70,0.00,,,0.00,WUHU21623XXSP,2013-03-27 14:10:00,
2013-03-27 09:15:00,27.3,18.5,30.29,NNE,22,1.3,1.6,69,0.00,,,0.00,WUHU21623XXSP,2013-03-27 14:15:00,
2013-03-27 09:20:00,27.7,18.9,30.29,NNE,22,0.9,1.6,69,0.00,,,0.00,WUHU21623XXSP,2013-03-27 14:20:00,
2013-03-27 09:25:00,27.7,18.9,30.29,North,356,1.3,1.6,69,0.00,,,0.00,WUHU21623XXSP,2013-03-27 14:25:00,
2013-03-27 09:30:00,28.0,19.6,30.30,NNE,22,0.0,1.6,70,0.00,,,0.00,WUHU21623XXSP,2013-03-27 14:30:00,
2013-03-27 09:35:00,28.2,19.8,30.30,West,270,0.0,0.7,70,0.00,,,0.00,WUHU21623XXSP,2013-03-27 14:35:00,
2013-03-27 09:40:00,28.8,19.9,30.30,WNW,292,2.0,2.0,69,0.00,,,0.00,WUHU21623XXSP,2013-03-27 14:40:00,
2013-03-27 09:45:00,29.1,20.2,30.30,NW,304,1.3,2.0,69,0.00,,,0.00,WUHU21623XXSP,2013-03-27 14:45:00,
2013-03-27 09:50:00,29.5,20.6,30.30,SSW,202,0.9,1.3,69,0.00,,,0.00,WUHU21623XXSP,2013-03-27 14:50:00,
2013-03-27 09:55:00,30.0,20.7,30.30,North,0,0.0,1.8,68,0.00,,,0.00,WUHU21623XXSP,2013-03-27 14:55:00,
2013-03-27 10:00:00,30.4,21.4,30.31,North,0,0.8,1.8,69,0.00,,,0.00,WUHU21623XXSP,2013-03-27 15:00:00,
2013-03-27 10:05:00,30.9,21.9,30.31,NNE,16,1.2,2.0,69,0.00,,,0.00,WUHU21623XXSP,2013-03-27 15:05:00,
2013-03-27 10:10:00,31.3,21.9,30.30,NNE,22,1.1,3.6,68,0.00,,,0.00,WUHU21623XXSP,2013-03-27 15:10:00,
2013-03-27 10:15:00,31.8,22.5,30.31,West,270,0.0,3.6,68,0.00,,,0.00,WUHU21623XXSP,2013-03-27 15:15:00,
2013-03-27 10:20:00,32.4,23.0,30.31,NNW,338,1.2,2.9,68,0.00,,,0.00,WUHU21623XXSP,2013-03-27 15:20:00,
2013-03-27 10:25:00,32.9,23.1,30.31,NNW,340,1.5,2.9,67,0.00,,,0.00,WUHU21623XXSP,2013-03-27 15:25:00,
2013-03-27 10:30:00,33.6,23.7,30.31,NNE,13,0.9,2.9,67,0.00,,,0.00,WUHU21623XXSP,2013-03-27 15:30:00,
2013-03-27 10:35:00,34.2,23.9,30.31,North,0,1.6,2.5,66,0.00,,,0.00,WUHU21623XXSP,2013-03-27 15:35:00,
2013-03-27 10:40:00,34.5,23.9,30.31,North,349,1.6,2.2,65,0.00,,,0.00,WUHU21623XXSP,2013-03-27 15:40:00,
2013-03-27 10:45:00,35.2,24.6,30.31,WNW,298,1.4,2.5,65,0.00,,,0.00,WUHU21623XXSP,2013-03-27 15:45:00,
2013-03-27 10:50:00,35.8,24.8,30.31,West,270,0.9,2.5,64,0.00,,,0.00,WUHU21623XXSP,2013-03-27 15:50:00,
2013-03-27 10:55:00,36.5,25.1,30.31,North,9,1.6,2.7,63,0.00,,,0.00,WUHU21623XXSP,2013-03-27 15:55:00,
2013-03-27 11:00:00,37.2,25.4,30.31,NW,318,1.4,2.7,62,0.00,,,0.00,WUHU21623XXSP,2013-03-27 16:00:00,
2013-03-27 11:05:00,37.6,25.3,30.31,NNW,337,1.0,2.0,61,0.00,,,0.00,WUHU21623XXSP,2013-03-27 16:05:00,
2013-03-27 11:10:00,38.3,26.0,30.31,NW,315,0.0,2.0,61,0.00,,,0.00,WUHU21623XXSP,2013-03-27 16:10:00,
2013-03-27 11:15:00,38.8,26.1,30.32,WSW,247,2.5,2.5,60,0.00,,,0.00,WUHU21623XXSP,2013-03-27 16:15:00,
2013-03-27 11:20:00,39.4,26.1,30.31,WNW,282,3.1,4.3,59,0.00,,,0.00,WUHU21623XXSP,2013-03-27 16:20:00,
2013-03-27 11:25:00,39.7,26.1,30.32,West,270,2.5,4.3,58,0.00,,,0.00,WUHU21623XXSP,2013-03-27 16:25:00,
2013-03-27 11:30:00,40.3,26.2,30.32,West,268,2.9,6.3,57,0.00,,,0.00,WUHU21623XXSP,2013-03-27 16:30:00,
2013-03-27 11:35:00,40.6,25.6,30.32,West,259,2.1,6.3,55,0.00,,,0.00,WUHU21623XXSP,2013-03-27 16:35:00,
2013-03-27 11:40:00,40.8,25.8,30.32,SSW,202,2.5,5.8,55,0.00,,,0.00,WUHU21623XXSP,2013-03-27 16:40:00,
2013-03-27 11:45:00,41.2,25.2,30.32,WSW,247,2.0,4.0,53,0.00,,,0.00,WUHU21623XXSP,2013-03-27 16:45:00,
2013-03-27 11:50:00,41.5,25.6,30.32,SW,225,4.9,5.1,53,0.00,,,0.00,WUHU21623XXSP,2013-03-27 16:50:00,
2013-03-27 11:55:00,41.7,25.8,30.32,SSW,210,3.4,6.3,53,0.00,,,0.00,WUHU21623XXSP,2013-03-27 16:55:00,
2013-03-27 12:00:00,41.7,25.3,30.31,SW,224,3.4,6.3,52,0.00,,,0.00,WUHU21623XXSP,2013-03-27 17:00:00,
2013-03-27 12:05:00,42.1,25.7,30.31,West,270,3.6,6.3,52,0.00,,,0.00,WUHU21623XXSP,2013-03-27 17:05:00,
2013-03-27 12:10:00,42.6,26.2,30.31,SW,225,3.4,5.4,52,0.00,,,0.00,WUHU21623XXSP,2013-03-27 17:10:00,
2013-03-27 12:15:00,43.0,26.1,30.31,WSW,244,1.7,4.9,51,0.00,,,0.00,WUHU21623XXSP,2013-03-27 17:15:00,
2013-03-27 12:20:00,43.2,26.3,30.31,West,270,1.3,4.0,51,0.00,,,0.00,WUHU21623XXSP,2013-03-27 17:20:00,
2013-03-27 12:26:00,43.5,26.6,30.31,South,180,2.9,4.3,51,0.00,,,0.00,WUHU21623XXSP,2013-03-27 17:26:00,
2013-03-27 12:31:00,43.9,26.9,30.31,West,270,3.4,4.7,51,0.00,,,0.00,WUHU21623XXSP,2013-03-27 17:31:00,
2013-03-27 12:36:00,44.1,26.7,30.31,WNW,282,3.0,5.4,50,0.00,,,0.00,WUHU21623XXSP,2013-03-27 17:36:00,
2013-03-27 12:41:00,44.6,27.1,30.31,West,270,3.4,5.6,50,0.00,,,0.00,WUHU21623XXSP,2013-03-27 17:41:00,
2013-03-27 12:46:00,45.1,27.1,30.31,WNW,292,2.9,5.6,49,0.00,,,0.00,WUHU21623XXSP,2013-03-27 17:46:00,
2013-03-27 12:51:00,45.5,26.9,30.31,West,270,2.0,5.1,48,0.00,,,0.00,WUHU21623XXSP,2013-03-27 17:51:00,
2013-03-27 12:56:00,45.7,26.5,30.31,WSW,244,3.0,5.1,47,0.00,,,0.00,WUHU21623XXSP,2013-03-27 17:56:00,
2013-03-27 13:01:00,45.7,26.0,30.31,SW,225,4.7,5.1,46,0.00,,,0.00,WUHU21623XXSP,2013-03-27 18:01:00,
2013-03-27 13:06:00,46.0,26.3,30.31,NW,318,1.7,5.4,46,0.00,,,0.00,WUHU21623XXSP,2013-03-27 18:06:00,
2013-03-27 13:11:00,46.2,25.9,30.31,South,180,3.1,5.4,45,0.00,,,0.00,WUHU21623XXSP,2013-03-27 18:11:00,
2013-03-27 13:16:00,46.2,25.4,30.31,South,180,2.2,6.0,44,0.00,,,0.00,WUHU21623XXSP,2013-03-27 18:16:00,
2013-03-27 13:22:00,46.6,25.7,30.31,SW,220,2.4,6.0,44,0.00,,,0.00,WUHU21623XXSP,2013-03-27 18:22:00,
2013-03-27 13:27:00,46.8,25.8,30.31,West,270,2.8,4.5,44,0.00,,,0.00,WUHU21623XXSP,2013-03-27 18:27:00,
2013-03-27 13:32:00,46.9,25.5,30.31,WSW,251,2.7,5.6,43,0.00,,,0.00,WUHU21623XXSP,2013-03-27 18:32:00,
2013-03-27 13:37:00,47.1,25.6,30.30,West,266,3.2,5.6,43,0.00,,,0.00,WUHU21623XXSP,2013-03-27 18:37:00,
2013-03-27 13:42:00,47.8,26.3,30.30,WSW,247,2.9,4.9,43,0.00,,,0.00,WUHU21623XXSP,2013-03-27 18:42:00,
2013-03-27 13:47:00,48.0,25.4,30.30,SSW,202,4.0,4.7,41,0.00,,,0.00,WUHU21623XXSP,2013-03-27 18:47:00,
2013-03-27 13:52:00,48.2,25.5,30.30,WSW,243,3.1,5.4,41,0.00,,,0.00,WUHU21623XXSP,2013-03-27 18:52:00,
2013-03-27 13:57:00,48.4,25.7,30.30,WSW,247,2.5,5.4,41,0.00,,,0.00,WUHU21623XXSP,2013-03-27 18:57:00,
2013-03-27 14:02:00,48.6,25.8,30.30,WSW,247,4.0,6.7,41,0.00,,,0.00,WUHU21623XXSP,2013-03-27 19:02:00,
2013-03-27 14:07:00,48.4,25.1,30.30,West,270,4.9,6.7,40,0.00,,,0.00,WUHU21623XXSP,2013-03-27 19:07:00,
2013-03-27 14:12:00,48.6,25.8,30.30,West,274,2.4,7.2,41,0.00,,,0.00,WUHU21623XXSP,2013-03-27 19:12:00,
2013-03-27 14:17:00,49.1,26.3,30.30,NW,314,2.7,7.2,41,0.00,,,0.00,WUHU21623XXSP,2013-03-27 19:17:00,
2013-03-27 14:22:00,49.3,26.0,30.30,NNW,337,2.7,5.1,40,0.00,,,0.00,WUHU21623XXSP,2013-03-27 19:22:00,
2013-03-27 14:27:00,49.6,26.3,30.30,NW,315,2.5,5.1,40,0.00,,,0.00,WUHU21623XXSP,2013-03-27 19:27:00,
2013-03-27 14:32:00,49.8,25.8,30.29,West,275,2.3,3.8,39,0.00,,,0.00,WUHU21623XXSP,2013-03-27 19:32:00,
2013-03-27 14:37:00,49.8,25.8,30.29,NNW,345,3.0,5.8,39,0.00,,,0.00,WUHU21623XXSP,2013-03-27 19:37:00,
2013-03-27 14:42:00,49.8,25.8,30.29,NW,315,3.1,5.8,39,0.00,,,0.00,WUHU21623XXSP,2013-03-27 19:42:00,
2013-03-27 14:47:00,49.8,25.1,30.29,NNW,330,1.5,4.5,38,0.00,,,0.00,WUHU21623XXSP,2013-03-27 19:47:00,
2013-03-27 14:52:00,49.8,25.8,30.29,WNW,292,2.9,4.5,39,0.00,,,0.00,WUHU21623XXSP,2013-03-27 19:52:00,
2013-03-27 14:57:00,50.2,25.4,30.29,North,0,3.4,5.4,38,0.00,,,0.00,WUHU21623XXSP,2013-03-27 19:57:00,
2013-03-27 15:02:00,50.2,25.4,30.29,NNW,348,2.6,5.4,38,0.00,,,0.00,WUHU21623XXSP,2013-03-27 20:02:00,
2013-03-27 15:07:00,50.4,25.6,30.29,West,263,3.1,5.8,38,0.00,,,0.00,WUHU21623XXSP,2013-03-27 20:07:00,
2013-03-27 15:13:00,50.2,24.7,30.29,NW,320,2.9,5.8,37,0.00,,,0.00,WUHU21623XXSP,2013-03-27 20:13:00,
2013-03-27 15:18:00,50.0,24.5,30.29,NNW,342,2.0,4.7,37,0.00,,,0.00,WUHU21623XXSP,2013-03-27 20:18:00,
2013-03-27 15:23:00,50.2,25.4,30.28,NNW,337,1.8,3.4,38,0.00,,,0.00,WUHU21623XXSP,2013-03-27 20:23:00,
2013-03-27 15:28:00,50.4,25.6,30.28,NW,317,2.3,4.7,38,0.00,,,0.00,WUHU21623XXSP,2013-03-27 20:28:00,
2013-03-27 15:33:00,50.5,25.7,30.28,West,275,1.4,4.7,38,0.00,,,0.00,WUHU21623XXSP,2013-03-27 20:33:00,
2013-03-27 15:38:00,50.5,25.7,30.28,NW,319,1.6,5.8,38,0.00,,,0.00,WUHU21623XXSP,2013-03-27 20:38:00,
2013-03-27 15:43:00,50.7,25.9,30.29,SW,219,3.0,5.8,38,0.00,,,0.00,WUHU21623XXSP,2013-03-27 20:43:00,
2013-03-27 15:48:00,50.5,25.0,30.28,West,271,1.5,5.1,37,0.00,,,0.00,WUHU21623XXSP,2013-03-27 20:48:00,
2013-03-27 15:53:00,50.4,24.9,30.28,South,180,2.9,5.1,37,0.00,,,0.00,WUHU21623XXSP,2013-03-27 20:53:00,
2013-03-27 15:58:00,50.2,24.7,30.28,SSW,202,2.2,5.1,37,0.00,,,0.00,WUHU21623XXSP,2013-03-27 20:58:00,
2013-03-27 16:03:00,50.2,24.7,30.28,NW,326,3.3,5.4,37,0.00,,,0.00,WUHU21623XXSP,2013-03-27 21:03:00,
2013-03-27 16:08:00,49.8,24.4,30.27,WSW,238,2.6,5.4,37,0.00,,,0.00,WUHU21623XXSP,2013-03-27 21:08:00,
2013-03-27 16:13:00,49.6,24.2,30.27,NW,313,0.9,5.4,37,0.00,,,0.00,WUHU21623XXSP,2013-03-27 21:13:00,
2013-03-27 16:18:00,49.6,24.9,30.27,NW,315,2.9,3.6,38,0.00,,,0.00,WUHU21623XXSP,2013-03-27 21:18:00,
2013-03-27 16:23:00,49.5,24.1,30.27,North,356,2.1,3.6,37,0.00,,,0.00,WUHU21623XXSP,2013-03-27 21:23:00,
2013-03-27 16:28:00,49.1,23.8,30.27,NW,321,2.4,3.6,37,0.00,,,0.00,WUHU21623XXSP,2013-03-27 21:28:00,
2013-03-27 16:33:00,49.1,24.4,30.27,North,6,2.7,4.0,38,0.00,,,0.00,WUHU21623XXSP,2013-03-27 21:33:00,
2013-03-27 16:38:00,48.9,24.3,30.26,NNE,24,1.3,4.0,38,0.00,,,0.00,WUHU21623XXSP,2013-03-27 21:38:00,
2013-03-27 16:43:00,48.9,24.3,30.26,SSW,202,0.8,2.9,38,0.00,,,0.00,WUHU21623XXSP,2013-03-27 21:43:00,
2013-03-27 16:48:00,48.9,24.3,30.26,SSE,157,0.9,2.9,38,0.00,,,0.00,WUHU21623XXSP,2013-03-27 21:48:00,
2013-03-27 16:53:00,48.9,24.3,30.26,WNW,292,2.2,2.2,38,0.00,,,0.00,WUHU21623XXSP,2013-03-27 21:53:00,
2013-03-27 16:58:00,48.7,24.1,30.26,West,270,0.7,2.5,38,0.00,,,0.00,WUHU21623XXSP,2013-03-27 21:58:00,
2013-03-27 17:03:00,48.4,23.8,30.25,WSW,239,2.4,4.3,38,0.00,,,0.00,WUHU21623XXSP,2013-03-27 22:03:00,
2013-03-27 17:08:00,48.0,23.5,30.25,WSW,247,3.1,5.1,38,0.00,,,0.00,WUHU21623XXSP,2013-03-27 22:08:00,
2013-03-27 17:13:00,47.5,22.3,30.26,WSW,254,1.5,5.1,37,0.00,,,0.00,WUHU21623XXSP,2013-03-27 22:13:00,
2013-03-27 17:18:00,46.9,22.5,30.25,SSW,206,2.1,5.1,38,0.00,,,0.00,WUHU21623XXSP,2013-03-27 22:18:00,
2013-03-27 17:23:00,46.6,22.2,30.25,West,270,2.6,4.9,38,0.00,,,0.00,WUHU21623XXSP,2013-03-27 22:23:00,
2013-03-27 17:28:00,46.6,22.2,30.25,West,266,2.0,4.9,38,0.00,,,0.00,WUHU21623XXSP,2013-03-27 22:28:00,
2013-03-27 17:33:00,46.2,21.9,30.25,West,279,1.8,4.7,38,0.00,,,0.00,WUHU21623XXSP,2013-03-27 22:33:00,
2013-03-27 17:38:00,46.2,21.9,30.25,WNW,301,1.2,4.7,38,0.00,,,0.00,WUHU21623XXSP,2013-03-27 22:38:00,
2013-03-27 17:43:00,46.0,22.4,30.25,NNE,22,0.9,2.9,39,0.00,,,0.00,WUHU21623XXSP,2013-03-27 22:43:00,
2013-03-27 17:48:00,46.0,22.4,30.25,WNW,283,1.3,2.9,39,0.00,,,0.00,WUHU21623XXSP,2013-03-27 22:48:00,
2013-03-27 17:53:00,46.0,22.4,30.25,NE,45,1.8,2.9,39,0.00,,,0.00,WUHU21623XXSP,2013-03-27 22:53:00,
2013-03-27 17:58:00,46.0,22.4,30.24,WNW,292,0.0,2.9,39,0.00,,,0.00,WUHU21623XXSP,2013-03-27 22:58:00,
2013-03-27 18:04:00,46.0,23.0,30.25,WNW,292,0.0,2.7,40,0.00,,,0.00,WUHU21623XXSP,2013-03-27 23:04:00,
2013-03-27 18:09:00,46.0,23.0,30.25,NNW,333,1.3,2.7,40,0.00,,,0.00,WUHU21623XXSP,2013-03-27 23:09:00,
2013-03-27 18:13:00,46.0,23.0,30.25,West,267,1.6,2.5,40,0.00,,,0.00,WUHU21623XXSP,2013-03-27 23:13:00,
2013-03-27 18:18:00,45.7,22.0,30.24,NW,304,1.6,2.5,39,0.00,,,0.00,WUHU21623XXSP,2013-03-27 23:18:00,
2013-03-27 18:23:00,45.7,22.7,30.24,NW,306,1.5,2.9,40,0.00,,,0.00,WUHU21623XXSP,2013-03-27 23:23:00,
2013-03-27 18:28:00,45.3,22.4,30.25,SW,225,5.1,5.1,40,0.00,,,0.00,WUHU21623XXSP,2013-03-27 23:28:00,
2013-03-27 18:34:00,44.8,21.9,30.25,West,270,1.6,5.1,40,0.00,,,0.00,WUHU21623XXSP,2013-03-27 23:34:00,
2013-03-27 18:39:00,44.4,21.6,30.25,West,270,2.9,4.7,40,0.00,,,0.00,WUHU21623XXSP,2013-03-27 23:39:00,
2013-03-27 18:44:00,44.2,21.4,30.25,West,270,4.5,5.4,40,0.00,,,0.00,WUHU21623XXSP,2013-03-27 23:44:00,
2013-03-27 18:49:00,43.7,20.9,30.25,WSW,255,1.6,5.4,40,0.00,,,0.00,WUHU21623XXSP,2013-03-27 23:49:00,
2013-03-27 18:54:00,43.2,20.4,30.25,West,270,1.6,4.9,40,0.00,,,0.00,WUHU21623XXSP,2013-03-27 23:54:00,
2013-03-27 18:59:00,42.6,20.5,30.25,WSW,251,1.3,13.9,41,0.00,,,0.00,WUHU21623XXSP,2013-03-27 23:59:00,
2013-03-27 19:04:00,42.4,20.3,30.25,WNW,292,1.4,13.9,41,0.00,,,0.00,WUHU21623XXSP,2013-03-28 00:04:00,
2013-03-27 19:09:00,42.1,20.0,30.25,WNW,288,1.0,2.9,41,0.00,,,0.00,WUHU21623XXSP,2013-03-28 00:09:00,
2013-03-27 19:14:00,41.9,20.4,30.25,West,270,2.0,2.0,42,0.00,,,0.00,WUHU21623XXSP,2013-03-28 00:14:00,
2013-03-27 19:19:00,41.7,20.2,30.25,West,274,1.6,2.9,42,0.00,,,0.00,WUHU21623XXSP,2013-03-28 00:19:00,
2013-03-27 19:24:00,41.4,19.9,30.25,NW,315,0.9,2.9,42,0.00,,,0.00,WUHU21623XXSP,2013-03-28 00:24:00,
2013-03-27 19:29:00,41.2,20.2,30.25,WNW,292,0.9,2.0,43,0.00,,,0.00,WUHU21623XXSP,2013-03-28 00:29:00,
2013-03-27 19:34:00,40.8,19.4,30.25,WNW,292,0.0,4.0,42,0.00,,,0.00,WUHU21623XXSP,2013-03-28 00:34:00,
2013-03-27 19:39:00,40.6,19.7,30.24,WNW,292,0.0,4.0,43,0.00,,,0.00,WUHU21623XXSP,2013-03-28 00:39:00,
2013-03-27 19:44:00,40.3,19.4,30.25,WNW,292,0.0,1.3,43,0.00,,,0.00,WUHU21623XXSP,2013-03-28 00:44:00,
2013-03-27 19:49:00,39.9,19.1,30.25,WNW,292,0.0,0.0,43,0.00,,,0.00,WUHU21623XXSP,2013-03-28 00:49:00,
2013-03-27 19:54:00,39.4,18.6,30.25,West,270,0.9,0.9,43,0.00,,,0.00,WUHU21623XXSP,2013-03-28 00:54:00,
2013-03-27 19:59:00,39.0,18.8,30.25,NW,315,1.6,2.0,44,0.00,,,0.00,WUHU21623XXSP,2013-03-28 00:59:00,
2013-03-27 20:04:00,38.8,18.6,30.25,West,270,0.0,3.6,44,0.00,,,0.00,WUHU21623XXSP,2013-03-28 01:04:00,
2013-03-27 20:09:00,38.5,18.3,30.25,West,270,1.2,3.6,44,0.00,,,0.00,WUHU21623XXSP,2013-03-28 01:09:00,
2013-03-27 20:14:00,38.1,18.0,30.25,West,270,0.7,2.5,44,0.00,,,0.00,WUHU21623XXSP,2013-03-28 01:14:00,
2013-03-27 20:19:00,37.9,18.4,30.25,West,270,0.0,1.6,45,0.00,,,0.00,WUHU21623XXSP,2013-03-28 01:19:00,
2013-03-27 20:24:00,37.6,18.0,30.25,West,270,0.0,1.6,45,0.00,,,0.00,WUHU21623XXSP,2013-03-28 01:24:00,
2013-03-27 20:29:00,37.4,17.9,30.26,WNW,292,0.0,1.3,45,0.00,,,0.00,WUHU21623XXSP,2013-03-28 01:29:00,
2013-03-27 20:34:00,37.2,17.7,30.26,WNW,292,0.0,0.7,45,0.00,,,0.00,WUHU21623XXSP,2013-03-28 01:34:00,
2013-03-27 20:39:00,37.0,18.1,30.26,West,270,0.0,0.7,46,0.00,,,0.00,WUHU21623XXSP,2013-03-28 01:39:00,
2013-03-27 20:44:00,36.7,17.7,30.26,West,270,0.0,2.5,46,0.00,,,0.00,WUHU21623XXSP,2013-03-28 01:44:00,
2013-03-27 20:49:00,36.3,17.4,30.26,West,270,0.9,2.5,46,0.00,,,0.00,WUHU21623XXSP,2013-03-28 01:49:00,
2013-03-27 20:54:00,36.3,17.4,30.26,WNW,292,0.0,1.1,46,0.00,,,0.00,WUHU21623XXSP,2013-03-28 01:54:00,
2013-03-27 20:59:00,36.0,17.6,30.26,WNW,292,0.0,0.9,47,0.00,,,0.00,WUHU21623XXSP,2013-03-28 01:59:00,
2013-03-27 21:04:00,35.8,17.5,30.26,West,270,0.0,1.6,47,0.00,,,0.00,WUHU21623XXSP,2013-03-28 02:04:00,
2013-03-27 21:09:00,35.2,17.5,30.26,West,270,0.0,1.6,48,0.00,,,0.00,WUHU21623XXSP,2013-03-28 02:09:00,
2013-03-27 21:14:00,35.2,17.5,30.26,NW,316,1.2,1.3,48,0.00,,,0.00,WUHU21623XXSP,2013-03-28 02:14:00,
2013-03-27 21:19:00,34.9,16.6,30.26,NW,315,1.3,1.6,47,0.00,,,0.00,WUHU21623XXSP,2013-03-28 02:19:00,
2013-03-27 21:24:00,34.5,16.8,30.26,WSW,247,0.7,1.6,48,0.00,,,0.00,WUHU21623XXSP,2013-03-28 02:24:00,
2013-03-27 21:29:00,34.3,16.6,30.27,West,270,0.0,0.7,48,0.00,,,0.00,WUHU21623XXSP,2013-03-28 02:29:00,
2013-03-27 21:34:00,34.3,16.6,30.27,West,263,0.8,0.9,48,0.00,,,0.00,WUHU21623XXSP,2013-03-28 02:34:00,
2013-03-27 21:39:00,34.2,16.4,30.26,WSW,247,1.5,2.2,48,0.00,,,0.00,WUHU21623XXSP,2013-03-28 02:39:00,
2013-03-27 21:44:00,34.0,16.7,30.27,WSW,247,1.6,2.2,49,0.00,,,0.00,WUHU21623XXSP,2013-03-28 02:44:00,
2013-03-27 21:49:00,33.8,16.6,30.27,West,270,0.0,1.6,49,0.00,,,0.00,WUHU21623XXSP,2013-03-28 02:49:00,
2013-03-27 21:54:00,33.6,16.4,30.27,West,270,0.0,0.9,49,0.00,,,0.00,WUHU21623XXSP,2013-03-28 02:54:00,
2013-03-27 21:59:00,33.6,16.4,30.27,West,270,0.0,0.0,49,0.00,,,0.00,WUHU21623XXSP,2013-03-28 02:59:00,
2013-03-27 22:04:00,33.3,16.6,30.28,West,270,0.0,0.0,50,0.00,,,0.00,WUHU21623XXSP,2013-03-28 03:04:00,
2013-03-27 22:09:00,32.7,16.1,30.28,West,270,0.0,0.0,50,0.00,,,0.00,WUHU21623XXSP,2013-03-28 03:09:00,
2013-03-27 22:14:00,32.5,15.9,30.28,West,270,0.0,2.2,50,0.00,,,0.00,WUHU21623XXSP,2013-03-28 03:14:00,
2013-03-27 22:19:00,32.2,15.6,30.28,West,270,0.0,2.2,50,0.00,,,0.00,WUHU21623XXSP,2013-03-28 03:19:00,
2013-03-27 22:24:00,31.8,15.7,30.28,West,270,0.0,0.9,51,0.00,,,0.00,WUHU21623XXSP,2013-03-28 03:24:00,
2013-03-27 22:29:00,31.8,15.7,30.28,West,270,0.9,0.9,51,0.00,,,0.00,WUHU21623XXSP,2013-03-28 03:29:00,
2013-03-27 22:34:00,31.6,15.5,30.28,West,270,0.0,2.5,51,0.00,,,0.00,WUHU21623XXSP,2013-03-28 03:34:00,
2013-03-27 22:39:00,31.6,16.0,30.28,West,270,0.0,2.5,52,0.00,,,0.00,WUHU21623XXSP,2013-03-28 03:39:00,
2013-03-27 22:44:00,31.3,15.6,30.28,SSW,202,0.0,0.9,52,0.00,,,0.00,WUHU21623XXSP,2013-03-28 03:44:00,
2013-03-27 22:49:00,30.9,15.3,30.28,South,189,1.4,2.7,52,0.00,,,0.00,WUHU21623XXSP,2013-03-28 03:49:00,
2013-03-27 22:54:00,30.7,15.1,30.29,SSW,202,0.0,2.7,52,0.00,,,0.00,WUHU21623XXSP,2013-03-28 03:54:00,
2013-03-27 22:59:00,30.6,15.4,30.29,SSW,202,0.0,0.0,53,0.00,,,0.00,WUHU21623XXSP,2013-03-28 03:59:00,
2013-03-27 23:00:00,30.6,15.4,30.29,SSW,202,0.0,0.0,53,0.00,,,0.00,WUHU21623XXSP,2013-03-28 04:00:00,
2013-03-27 23:05:00,30.4,15.2,30.29,SSW,202,1.3,1.3,53,0.00,,,0.00,WUHU21623XXSP,2013-03-28 04:05:00,
2013-03-27 23:10:00,30.0,15.3,30.29,South,188,1.0,2.2,54,0.00,,,0.00,WUHU21623XXSP,2013-03-28 04:10:00,
2013-03-27 23:15:00,29.8,15.2,30.29,SSW,202,0.0,2.2,54,0.00,,,0.00,WUHU21623XXSP,2013-03-28 04:15:00,
2013-03-27 23:20:00,29.7,15.0,30.29,SSW,202,0.0,1.6,54,0.00,,,0.00,WUHU21623XXSP,2013-03-28 04:20:00,
2013-03-27 23:25:00,29.7,15.4,30.29,SSW,197,0.9,0.9,55,0.00,,,0.00,WUHU21623XXSP,2013-03-28 04:25:00,
2013-03-27 23:30:00,29.5,15.2,30.29,SSW,202,1.0,1.1,55,0.00,,,0.00,WUHU21623XXSP,2013-03-28 04:30:00,
2013-03-27 23:35:00,29.3,15.1,30.29,SSW,202,0.0,1.1,55,0.00,,,0.00,WUHU21623XXSP,2013-03-28 04:35:00,
2013-03-27 23:40:00,29.1,14.9,30.29,SSW,202,0.0,0.0,55,0.00,,,0.00,WUHU21623XXSP,2013-03-28 04:40:00,
2013-03-27 23:45:00,28.9,14.8,30.29,SSW,202,0.0,0.0,55,0.00,,,0.00,WUHU21623XXSP,2013-03-28 04:45:00,
2013-03-27 23:50:00,28.8,14.6,30.29,SSW,202,0.0,0.0,55,0.00,,,0.00,WUHU21623XXSP,2013-03-28 04:50:00,
2013-03-27 23:55:00,28.6,14.8,30.29,SSW,202,0.0,0.0,56,0.00,,,0.00,WUHU21623XXSP,2013-03-28 04:55:00,